K9APR Weather Reports


time (UTC)temp
F
wind
direction
speed
knots
gust
knots
rain 1hr
in
rain 24hr
in
rain mn
in
humidity
%
barometer
mb
20260503015002 40 302 0.0 0.0 0.00 0.00 0.00 68 1019.5
20260503014104 41 302 0.0 0.0 0.00 0.00 0.00 71 1019.4
20260503013202 41 302 0.0 0.9 0.00 0.00 0.00 67 1019.5
20260503012305 41 302 0.0 0.0 0.00 0.00 0.00 67 1019.3
20260503011403 42 302 0.0 0.0 0.00 0.00 0.00 69 1019.3
20260503010502 43 302 0.0 0.0 0.00 0.00 0.00 61 1019.3
20260503005602 44 302 0.0 0.0 0.00 0.00 0.00 60 1019.2
20260503004702 45 302 0.0 0.0 0.00 0.00 0.00 54 1019.2
20260503003803 46 302 0.0 0.0 0.00 0.00 0.00 52 1019.2
20260503002903 48 302 0.0 0.0 0.00 0.00 0.00 51 1019.1
20260503002005 49 302 0.0 0.0 0.00 0.00 0.00 51 1019.0
20260503001104 49 302 0.0 0.0 0.00 0.00 0.00 51 1019.0
20260503000204 49 308 0.9 0.9 0.00 0.00 0.00 49 1019.0
20260502235305 48 290 1.7 2.6 0.00 0.00 0.00 48 1019.0
20260502234402 49 326 0.9 0.9 0.00 0.00 0.00 48 1019.0
20260502233503 48 302 0.9 1.7 0.00 0.00 0.00 47 1019.1
20260502232604 49 309 0.9 0.0 0.00 0.00 0.00 50 1019.1
20260502231703 49 301 2.6 2.6 0.00 0.00 0.00 48 1019.1
20260502230803 49 300 1.7 2.6 0.00 0.00 0.00 49 1019.1
20260502225902 48 308 0.9 2.6 0.00 0.00 0.00 52 1019.1
20260502225003 48 300 1.7 2.6 0.00 0.00 0.00 50 1019.2
20260502223202 49 304 1.7 2.6 0.00 0.00 0.00 50 1019.0
20260502222305 48 300 0.9 1.7 0.00 0.00 0.00 53 1019.2
20260502221402 49 300 0.9 2.6 0.00 0.00 0.00 51 1019.2
20260502220502 49 315 4.3 4.3 0.00 0.00 0.00 47 1019.1
20260502215605 48 298 4.3 5.2 0.00 0.00 0.00 50 1019.0
20260502214703 49 306 4.3 6.1 0.00 0.00 0.00 51 1019.0
20260502213802 49 311 2.6 2.6 0.00 0.00 0.00 50 1019.0
20260502212902 49 305 2.6 6.1 0.00 0.00 0.00 51 1018.9
20260502212004 50 347 2.6 5.2 0.00 0.00 0.00 52 1018.8
20260502211104 48 311 1.7 2.6 0.00 0.00 0.00 50 1018.8
20260502210204 48 309 2.6 5.2 0.00 0.00 0.00 50 1018.9
20260502205305 49 313 1.7 2.6 0.00 0.00 0.00 51 1018.9
20260502204403 49 304 4.3 5.2 0.00 0.00 0.00 50 1018.8
20260502203503 49 307 6.1 7.8 0.00 0.00 0.00 48 1018.8
20260502202603 50 306 4.3 5.2 0.00 0.00 0.00 50 1018.7
20260502201704 50 308 5.2 5.2 0.00 0.00 0.00 48 1018.8
20260502200802 51 326 4.3 7.8 0.00 0.00 0.00 49 1018.7
20260502195902 50 303 7.0 8.7 0.00 0.00 0.00 47 1018.8
20260502195003 50 298 2.6 5.2 0.00 0.00 0.00 52 1018.9
20260502194103 50 342 1.7 2.6 0.00 0.00 0.00 51 1018.9
20260502193203 49 305 4.3 6.1 0.00 0.00 0.00 52 1019.0
20260502192305 49 306 4.3 7.8 0.00 0.00 0.00 49 1019.0
20260502191403 50 323 1.7 4.3 0.00 0.00 0.00 48 1019.0
20260502190504 51 313 2.6 4.3 0.00 0.00 0.00 47 1019.1
20260502185603 49 290 2.6 5.2 0.00 0.00 0.00 52 1019.2
20260502184702 50 309 2.6 5.2 0.00 0.00 0.00 49 1019.4
20260502183803 50 299 5.2 6.1 0.00 0.00 0.00 48 1019.3
20260502182903 51 305 2.6 5.2 0.00 0.00 0.00 50 1019.4
20260502182004 50 302 4.3 6.1 0.00 0.00 0.00 50 1019.4
20260502181103 50 306 2.6 2.6 0.00 0.00 0.00 51 1019.4
20260502180202 50 305 4.3 5.2 0.00 0.00 0.00 47 1019.4
20260502164103 49 330 1.7 4.3 0.00 0.00 0.00 49 1019.9
20260502163202 49 307 4.3 5.2 0.00 0.00 0.00 47 1019.9
20260502162304 49 321 0.9 1.7 0.00 0.00 0.00 50 1020.0
20260502161404 48 327 2.6 2.6 0.00 0.00 0.00 51 1020.2
20260502160502 48 306 5.2 6.1 0.00 0.00 0.00 50 1020.3
20260502152003 46 299 1.7 2.6 0.00 0.00 0.00 52 1020.3
20260502151102 46 321 0.9 2.6 0.00 0.00 0.00 54 1020.2
20260502150204 45 300 0.9 1.7 0.00 0.00 0.00 55 1020.3
20260502130502 39 312 0.0 0.9 0.00 0.02 0.00 74 1020.0
20260502123803 37 306 0.9 1.7 0.00 0.03 0.00 75 1019.7
20260502122902 37 304 0.0 0.9 0.00 0.03 0.00 78 1019.6
20260502122002 36 256 0.0 0.9 0.00 0.04 0.00 80 1019.4
20260502121103 35 288 0.9 2.6 0.00 0.05 0.00 82 1019.4
20260502120203 34 356 0.0 0.0 0.00 0.06 0.00 84 1019.4
20260502115305 34 80 0.0 0.9 0.00 0.06 0.00 84 1019.3
20260502114403 34 81 0.0 0.0 0.00 0.06 0.00 85 1019.2
20260502113502 33 81 0.0 0.0 0.00 0.07 0.00 84 1019.2
20260502112603 34 81 0.0 0.0 0.00 0.08 0.00 84 1019.1
20260502111703 34 81 0.0 0.0 0.00 0.08 0.00 84 1019.0
20260502110803 34 81 0.0 0.0 0.00 0.08 0.00 84 1018.9
20260502105901 34 81 0.0 0.0 0.00 0.08 0.00 83 1018.9
20260502105035 34 81 0.0 0.0 0.00 0.08 0.00 83 1019.0
20260502105003 34 81 0.0 0.0 0.00 0.08 0.00 83 1019.0
20260502104102 34 81 0.0 0.0 0.00 0.08 0.00 83 1018.9
20260502103203 34 81 0.0 0.0 0.00 0.08 0.00 82 1018.9
20260502102305 34 81 0.0 0.0 0.00 0.08 0.00 82 1018.8
20260502101403 34 81 0.0 0.0 0.00 0.08 0.00 82 1018.8
20260502100503 34 81 0.0 0.0 0.00 0.08 0.00 81 1018.8
20260502091105 37 304 0.0 0.0 0.00 0.08 0.00 79 1018.7
20260502090202 37 303 0.0 0.0 0.00 0.08 0.00 79 1018.6
20260502071403 37 303 0.0 0.0 0.00 0.08 0.00 85 1018.6
20260502070502 37 303 0.0 0.0 0.00 0.08 0.00 84 1018.6
20260502065602 37 303 0.0 0.0 0.00 0.08 0.00 83 1018.6
20260502064703 36 303 0.0 0.0 0.00 0.08 0.00 81 1018.7
20260502063802 36 303 0.0 0.0 0.00 0.08 0.00 80 1018.7
20260502062902 37 303 0.0 0.0 0.00 0.08 0.00 81 1018.7
20260502062003 37 303 0.0 0.0 0.00 0.08 0.00 81 1018.8
20260502061104 37 303 0.0 0.0 0.00 0.08 0.00 82 1018.8
20260502060203 37 303 0.0 0.0 0.00 0.08 0.00 82 1018.8
20260502055305 37 303 0.0 0.0 0.00 0.08 0.00 82 1018.9
20260502054403 37 303 0.0 0.0 0.00 0.08 0.00 82 1019.0
20260502053502 37 303 0.0 0.0 0.00 0.08 0.00 81 1019.0
20260502052607 37 303 0.0 0.0 0.00 0.08 0.00 80 1019.1
20260502051702 37 303 0.0 0.0 0.00 0.08 0.00 81 1019.1
20260502050801 37 303 0.0 0.0 0.00 0.08 0.00 81 1019.0
20260502045902 37 303 0.0 0.0 0.00 0.08 0.00 81 1018.9
20260502045002 37 303 0.0 0.0 0.00 0.08 0.00 81 1018.9
20260502044103 38 303 0.0 0.0 0.00 0.08 0.00 81 1018.9
20260502043201 38 303 0.0 0.0 0.00 0.08 0.00 82 1019.0
20260502042306 38 303 0.0 0.0 0.00 0.08 0.00 83 1019.0
20260502041402 38 303 0.0 0.0 0.00 0.08 0.00 84 1018.9
20260502040502 38 303 0.0 0.0 0.00 0.08 0.00 84 1018.9
20260502035602 38 303 0.0 0.0 0.00 0.08 0.08 84 1018.8
20260502034703 38 303 0.0 0.0 0.00 0.08 0.08 84 1018.9
20260502033801 38 303 0.0 0.0 0.00 0.08 0.08 84 1018.9
20260502032905 38 303 0.0 0.0 0.00 0.08 0.08 83 1018.9
20260502032002 39 303 0.0 0.0 0.00 0.08 0.08 83 1019.0
20260502031103 39 303 0.0 0.0 0.00 0.08 0.08 83 1018.8
20260502030202 39 303 0.0 0.0 0.00 0.08 0.08 83 1018.9
20260502025948 39 303 0.0 0.0 0.00 0.08 0.08 83 1019.0
20260502025306 39 303 0.0 0.0 0.00 0.08 0.08 83 1019.0
20260502024403 40 303 0.0 0.0 0.00 0.08 0.08 82 1019.0
20260502023503 40 303 0.0 0.0 0.00 0.08 0.08 82 1018.9
20260502022603 40 303 0.0 0.0 0.00 0.08 0.08 82 1018.8
20260502021702 41 303 0.0 0.0 0.00 0.08 0.08 80 1018.6
20260502020801 41 303 0.0 0.0 0.00 0.08 0.08 80 1018.5
20260502015903 42 303 0.0 0.0 0.00 0.08 0.08 79 1018.2